DateTimeUTC,F1_A11,F1_S11,BsB_S11,BsG_S11,BsR_S11,BbsB_S11,BbsG_S11,BbsR_S11,BaB_A11,BaG_A11,BaR_A11,Tu_S11,T_S11,Uu_S11,U_S11,P_S11,T1_A11
2021-01-10T03:00:00Z,00000200,21000000,,,,,,,-000.23,-000.12,0000.05,15.4,22.6,,00.0,0640.1,30.8
2021-01-10T03:01:00Z,00000200,21000000,,,,,,,0000.14,-000.02,-000.28,15.4,22.6,,00.0,0640.1,30.8
2021-01-10T03:02:00Z,00000200,21000000,,,,,,,0000.02,0000.09,0000.29,15.3,22.5,,00.0,0640.1,30.7
2021-01-10T03:03:00Z,00000200,61000000,,,,,,,0000.33,0000.02,0000.20,15.3,22.6,,00.0,0640.1,30.7
2021-01-10T03:04:00Z,00000200,41000000,0000.35,0000.20,-000.05,-000.22,-000.09,0000.04,-000.37,-000.24,-000.19,15.3,22.3,,00.0,0640.9,30.7
2021-01-10T03:05:00Z,00000200,01000000,0000.59,-000.11,-000.03,0000.32,0000.16,0000.15,0000.34,0000.29,0000.21,15.4,22.2,,00.0,0640.9,30.7
2021-01-10T03:06:00Z,00000200,01000000,-000.18,0000.21,0000.03,0000.06,0000.09,0000.37,0000.27,0000.03,0000.46,15.4,22.2,,00.0,0640.9,30.7
2021-01-10T03:07:00Z,00000200,01000000,0000.33,-000.03,0000.08,0000.61,-000.08,-000.02,-000.04,0000.12,-000.00,15.5,22.2,,00.0,0640.9,30.7
2021-01-10T03:08:00Z,00000200,01000000,0001.10,0000.06,0000.31,0000.36,0000.06,0000.17,0000.18,0000.52,0000.07,15.5,22.3,,00.0,0640.9,30.8
2021-01-10T03:09:00Z,00000200,01000000,0000.33,0000.18,0000.03,-000.15,0000.20,0000.25,0000.02,-000.00,-000.03,15.6,22.3,,00.0,0640.9,30.8
2021-01-10T03:10:00Z,00000200,01000000,0000.03,0000.02,-000.12,0000.01,0000.13,-000.04,-000.19,-000.08,0000.02,15.7,22.3,,00.0,0640.9,30.8
2021-01-10T03:11:00Z,00000200,01000000,-000.09,0000.05,0000.18,0000.22,-000.24,-000.27,-000.19,0000.14,-000.10,15.8,22.3,,00.0,0640.9,30.8
2021-01-10T03:12:00Z,00000200,01000000,0000.52,0000.33,0000.17,0000.49,-000.17,-000.06,-000.06,-000.11,-000.10,15.8,22.4,,00.0,0640.9,30.8
2021-01-10T03:13:00Z,00000200,01000000,0000.81,0000.48,0000.07,0000.57,-000.05,-000.04,0000.19,-000.30,0000.04,15.8,22.4,,00.0,0640.9,30.8
2021-01-10T03:14:00Z,00000200,01000000,0000.79,0000.10,-000.15,0000.24,0000.10,-000.19,-000.40,-000.31,-000.59,15.8,22.4,,00.0,0640.9,30.8
2021-01-10T03:15:00Z,00000200,01000000,-000.04,0000.15,0000.19,0000.39,-000.03,0000.11,0000.04,-000.36,-000.02,15.8,22.4,,00.0,0640.9,30.8
2021-01-10T03:16:00Z,00000200,01000000,0000.50,0000.08,0000.37,0000.44,0000.18,0000.09,-000.30,0000.29,-000.20,15.7,22.3,,00.0,0640.9,30.8
2021-01-10T03:17:00Z,00000200,01000000,0000.55,0000.37,0000.22,0000.11,-000.02,0000.09,-000.18,-000.18,0000.21,15.7,22.3,,00.0,0640.9,30.8
2021-01-10T03:18:00Z,00000200,01000000,-000.22,-000.00,0000.09,-000.10,-000.15,0000.07,-000.26,-000.16,-000.25,15.6,22.3,,00.0,0640.9,30.8
2021-01-10T03:19:00Z,00000200,01000000,0000.43,0000.28,0000.14,-000.27,0000.29,-000.08,0000.26,0000.13,-000.09,15.6,22.3,,00.0,0640.9,30.8
2021-01-10T03:20:00Z,00000200,01000000,0000.42,0000.07,0000.33,0000.21,-000.21,0000.05,0000.25,-000.05,0000.14,15.5,22.2,,00.0,0640.9,30.7
2021-01-10T03:21:00Z,00000200,01000000,0000.43,0000.09,0000.18,0000.45,-000.04,-000.15,0000.20,0000.38,0000.29,15.5,22.2,,00.0,0640.9,30.7
2021-01-10T03:22:00Z,00000200,01000000,0000.32,0000.22,0000.18,0000.64,-000.05,-000.04,-000.11,-000.00,0000.33,15.6,22.2,,00.0,0640.9,30.8
2021-01-10T03:23:00Z,00000200,01000000,0000.25,0000.09,0000.03,0000.06,0000.18,0000.04,0000.34,0000.03,-000.17,15.7,22.2,,00.0,0641.0,30.8
2021-01-10T03:24:00Z,00000200,01000000,0000.23,0000.48,0000.03,0000.72,0000.20,0000.06,-000.12,0000.06,0000.46,15.7,22.3,,00.0,0641.0,30.8
2021-01-10T03:25:00Z,00000200,01000000,0000.93,0000.34,-000.05,0000.19,-000.01,-000.22,0000.24,0000.29,-000.05,15.8,22.3,,00.0,0641.0,30.8
2021-01-10T03:26:00Z,00000200,01000000,0000.29,0000.01,-000.01,-000.13,-000.23,0000.16,-000.07,-000.29,0000.07,15.9,22.4,,00.0,0641.0,30.8
2021-01-10T03:27:00Z,00000200,01000000,0000.07,-000.00,-000.18,0000.02,-000.07,0000.12,-000.09,0000.36,0000.01,16.0,22.4,,00.0,0641.0,30.8
2021-01-10T03:28:00Z,00000200,01000000,0000.06,0000.05,0000.13,0000.07,0000.05,0000.07,0000.27,0000.34,-000.32,16.0,22.4,,00.0,0641.0,30.8
2021-01-10T03:29:00Z,00000200,01000000,0000.41,0000.10,-000.01,-000.02,-000.15,-000.17,-000.28,-000.69,0000.12,16.1,22.5,,00.0,0641.0,30.8
2021-01-10T03:30:00Z,00000200,01000000,-000.03,0000.27,0000.15,0000.50,-000.06,-000.00,0000.12,0000.40,0000.02,16.1,22.5,,00.0,0641.0,30.8
2021-01-10T03:31:00Z,00000200,01000000,0000.30,0000.44,0000.19,0000.28,0000.12,0000.10,-000.16,-000.39,-000.37,16.0,22.5,,00.0,0641.0,30.8
2021-01-10T03:32:00Z,00000200,01000000,0000.75,0000.37,0000.34,0000.58,0000.05,-000.04,-000.28,0000.16,0000.25,16.0,22.4,,00.0,0641.0,30.8
2021-01-10T03:33:00Z,00000200,01000000,0000.38,0000.18,-000.03,0000.30,-000.00,-000.12,-000.04,-000.53,-000.20,15.9,22.4,,00.0,0641.0,30.8
2021-01-10T03:34:00Z,00000200,01000000,0000.52,0000.26,0000.06,0000.50,-000.01,-000.00,-000.15,0000.00,-000.22,15.8,22.4,,00.0,0641.0,30.8
2021-01-10T03:35:00Z,00000200,01000000,0000.34,0000.22,0000.16,0000.13,-000.02,-000.18,0000.04,-000.11,0000.08,15.8,22.4,,00.0,0641.0,30.8
2021-01-10T03:36:00Z,00000200,01000000,0000.54,0000.47,0000.02,0000.10,0000.18,0000.21,0000.16,0000.37,0000.04,15.8,22.4,,00.0,0641.0,30.8
2021-01-10T03:37:00Z,00000200,01000000,0000.55,0000.34,0000.02,-000.00,-000.12,0000.19,0000.26,0000.21,0000.21,15.8,22.4,,00.0,0641.0,30.8
2021-01-10T03:38:00Z,00000200,01000000,0000.08,0000.14,0000.10,0000.33,-000.14,-000.15,0000.33,-000.34,0000.07,15.9,22.4,,00.0,0641.0,30.8
2021-01-10T03:39:00Z,00000200,01000000,0000.30,0000.27,0000.22,0000.16,-000.11,0000.09,-000.09,0000.53,0000.20,16.0,22.4,,00.0,0641.0,30.8
2021-01-10T03:40:00Z,00000200,01000000,0000.55,0000.32,0000.28,0000.30,0000.03,0000.05,0000.16,0000.27,0000.16,16.0,22.5,,00.0,0641.0,30.8
2021-01-10T03:41:00Z,00000200,01000000,-000.23,0000.33,0000.18,-000.17,-000.12,0000.21,-000.08,-000.24,0000.01,16.1,22.5,,00.0,0641.0,30.8
2021-01-10T03:42:00Z,00000200,01000000,0000.82,0000.41,0000.09,-000.28,0000.03,0000.13,0000.06,0000.23,-000.21,16.2,22.5,,00.0,0641.0,30.8
2021-01-10T03:43:00Z,00000200,01000000,0000.39,0000.32,0000.01,-000.11,0000.21,0000.16,0000.05,-000.42,-000.03,16.2,22.5,,00.0,0641.0,30.8
2021-01-10T03:44:00Z,00000200,01000000,-000.11,0000.10,0000.37,-000.13,-000.04,0000.16,-000.22,0000.50,-000.15,16.1,22.5,,00.0,0641.0,30.8
2021-01-10T03:45:00Z,00000200,01000000,0000.02,0000.37,-000.01,0000.06,-000.13,-000.06,-000.25,-000.60,0000.19,16.1,22.5,,00.0,0641.0,30.8
2021-01-10T03:46:00Z,00000200,01000000,0000.32,0000.18,-000.09,-000.27,-000.22,0000.17,0000.24,-000.22,-000.26,16.0,22.5,,00.0,0641.0,30.8
2021-01-10T03:47:00Z,00000200,01000000,0000.76,0000.29,0000.24,-000.06,0000.05,0000.14,0000.11,0000.26,0000.15,16.0,22.5,,00.0,0641.0,30.8
2021-01-10T03:48:00Z,00000200,01000000,0000.36,0000.19,0000.01,-000.03,-000.04,0000.04,-000.08,0000.26,0000.16,15.9,22.5,,00.0,0641.0,30.8
2021-01-10T03:49:00Z,00000200,01000000,-000.05,0000.01,-000.03,0000.22,-000.09,-000.02,-000.01,-000.14,0000.07,15.8,22.4,,00.0,0641.0,30.8
2021-01-10T03:50:00Z,00000200,01000000,0000.40,0000.25,0000.19,0000.17,-000.03,0000.13,0000.03,0000.19,-000.13,15.8,22.4,,00.0,0641.0,30.8
2021-01-10T03:51:00Z,00000200,01000000,-000.05,0000.29,0000.05,0000.33,-000.30,0000.09,0000.10,-000.21,0000.13,15.8,22.4,,00.0,0641.0,30.8
2021-01-10T03:52:00Z,00000200,01000000,0000.80,0000.34,0000.36,0000.36,-000.21,0000.03,0000.06,-000.08,0000.23,15.9,22.4,,00.0,0641.0,30.8
2021-01-10T03:53:00Z,00000200,01000000,0000.37,0000.10,0000.13,0000.49,-000.16,0000.13,0000.30,0000.49,-000.26,15.9,22.4,,00.0,0641.1,30.8
2021-01-10T03:54:00Z,00000200,01000000,-000.25,0000.20,-000.10,0000.54,0000.40,0000.09,-000.04,-000.20,0000.31,16.0,22.5,,00.0,0641.1,30.8
2021-01-10T03:55:00Z,00000200,01000000,0000.38,0000.09,0000.18,0000.22,0000.01,-000.06,0000.09,0000.30,-000.03,16.1,22.5,,00.0,0641.1,30.8
2021-01-10T03:56:00Z,00000200,01000000,0001.50,-000.01,0000.36,0000.57,0000.07,-000.06,0000.04,-000.09,0000.04,16.1,22.5,,00.0,0641.1,30.8
2021-01-10T03:57:00Z,00000200,41000000,,,,,,,0000.09,0000.17,-000.00,16.2,22.6,,00.0,0641.1,30.8
2021-01-10T03:58:00Z,00000200,61000000,,,,,,,-000.39,-000.05,-000.41,15.8,22.7,,00.0,0640.2,30.8
2021-01-10T03:59:00Z,00000200,21000000,,,,,,,-000.35,-000.60,-000.13,15.7,22.8,,00.0,0640.3,30.8
